DAL511 KDFW-KATL

Flight info

Callsign DAL511
Flight time 1h 30m
Altitude 37000
Route TRYTN4 LOOSE MEMFS HUTCC KNSAW RUSSA GLAVN2
Aircraft A346/H-SDE2E3FGHIJ3J4J5M1RWXY/LB1D1

Departure

Time 2026-05-05 15:28
Airport Dallas Fort Worth International Airport (KDFW)

Arrival

Time 2026-05-05 16:59
Airport Hartsfield Jackson Atlanta International Airport (KATL)
Time Latitude Longitude Altitude Speed Heading
2026-05-05 15:08 32.88979 -97.03486 624 ft 0 kts 288°
2026-05-05 15:20 32.88978 -97.03481 624 ft 0 kts 288°
2026-05-05 15:20 32.88970 -97.03452 636 ft 0 kts 288°
2026-05-05 15:20 32.88961 -97.03421 624 ft 0 kts 288°
2026-05-05 15:20 32.88953 -97.03391 635 ft 0 kts 288°
2026-05-05 15:21 32.88948 -97.03375 624 ft 0 kts 291°
2026-05-05 15:22 32.88949 -97.03376 624 ft 1 kts 291°
2026-05-05 15:23 32.88957 -97.03391 624 ft 3 kts 316°
2026-05-05 15:23 32.88982 -97.03396 635 ft 5 kts 18°
2026-05-05 15:23 32.89013 -97.03353 632 ft 9 kts 63°
2026-05-05 15:23 32.89032 -97.03267 624 ft 12 kts 79°
2026-05-05 15:24 32.89094 -97.03202 629 ft 14 kts 14°
2026-05-05 15:24 32.89210 -97.03197 628 ft 17 kts 359°
2026-05-05 15:24 32.89344 -97.03198 637 ft 20 kts 360°
2026-05-05 15:24 32.89495 -97.03197 633 ft 23 kts
2026-05-05 15:25 32.89668 -97.03196 630 ft 25 kts
2026-05-05 15:25 32.89836 -97.03196 630 ft 26 kts
2026-05-05 15:25 32.90049 -97.03191 630 ft 28 kts
2026-05-05 15:25 32.90272 -97.03189 632 ft 30 kts 359°
2026-05-05 15:26 32.90485 -97.03191 624 ft 31 kts
2026-05-05 15:26 32.90722 -97.03190 624 ft 32 kts
2026-05-05 15:26 32.90947 -97.03189 631 ft 31 kts
2026-05-05 15:26 32.91151 -97.03189 632 ft 30 kts
2026-05-05 15:27 32.91361 -97.03188 624 ft 25 kts 360°
2026-05-05 15:27 32.91481 -97.03187 624 ft 18 kts
2026-05-05 15:27 32.91554 -97.03099 627 ft 20 kts 78°
2026-05-05 15:27 32.91479 -97.02992 624 ft 21 kts 176°
2026-05-05 15:28 32.91173 -97.02991 630 ft 84 kts 180°
2026-05-05 15:28 32.90135 -97.03001 625 ft 174 kts 180°
2026-05-05 15:28 32.88581 -97.02992 819 ft 228 kts 181°
2026-05-05 15:28 32.87035 -97.02967 1504 ft 204 kts 180°
2026-05-05 15:29 32.85640 -97.02872 1672 ft 203 kts 179°
2026-05-05 15:29 32.84184 -97.02556 2043 ft 227 kts 163°
2026-05-05 15:29 32.82640 -97.01786 2752 ft 246 kts 160°
2026-05-05 15:29 32.81052 -97.00932 3676 ft 252 kts 160°
2026-05-05 15:30 32.79429 -97.00047 4734 ft 258 kts 155°
2026-05-05 15:30 32.78034 -96.98581 5575 ft 277 kts 130°
2026-05-05 15:30 32.77157 -96.96468 6340 ft 293 kts 115°
2026-05-05 15:30 32.76572 -96.94068 7021 ft 308 kts 103°
2026-05-05 15:31 32.76420 -96.91468 7743 ft 317 kts 90°
2026-05-05 15:31 32.76542 -96.88797 8547 ft 320 kts 87°
2026-05-05 15:31 32.76706 -96.86134 9327 ft 322 kts 87°
2026-05-05 15:31 32.76930 -96.83468 10032 ft 326 kts 81°
2026-05-05 15:32 32.77416 -96.80808 10716 ft 330 kts 74°
2026-05-05 15:32 32.78086 -96.78152 11427 ft 334 kts 71°
2026-05-05 15:32 32.78805 -96.75479 12128 ft 339 kts 71°
2026-05-05 15:32 32.79532 -96.72776 12905 ft 343 kts 71°
2026-05-05 15:33 32.80261 -96.70022 13675 ft 347 kts 71°
2026-05-05 15:33 32.80987 -96.67248 14395 ft 353 kts 70°
2026-05-05 15:33 32.81723 -96.64413 15105 ft 359 kts 70°
2026-05-05 15:33 32.82465 -96.61544 15804 ft 365 kts 70°
2026-05-05 15:34 32.83232 -96.58577 16517 ft 371 kts 70°
2026-05-05 15:34 32.84007 -96.55573 17212 ft 377 kts 69°
2026-05-05 15:34 32.84790 -96.52533 17910 ft 382 kts 69°
2026-05-05 15:34 32.85574 -96.49486 18581 ft 388 kts 69°
2026-05-05 15:35 32.86395 -96.46299 19267 ft 394 kts 69°
2026-05-05 15:35 32.87202 -96.43163 19924 ft 398 kts 69°
2026-05-05 15:35 32.88101 -96.39651 20615 ft 404 kts 69°
2026-05-05 15:35 32.89101 -96.35748 21370 ft 410 kts 69°
2026-05-05 15:36 32.90120 -96.32042 22068 ft 414 kts 65°
2026-05-05 15:36 32.91152 -96.28782 22639 ft 418 kts 64°
2026-05-05 15:36 32.92223 -96.25517 23188 ft 424 kts 63°
2026-05-05 15:36 32.92948 -96.23319 23556 ft 427 kts 63°
2026-05-05 15:37 32.94413 -96.18859 24288 ft 433 kts 64°
2026-05-05 15:37 32.95137 -96.16638 24635 ft 436 kts 64°
2026-05-05 15:37 32.96232 -96.13258 25171 ft 440 kts 64°
2026-05-05 15:37 32.97341 -96.09828 25694 ft 444 kts 64°
2026-05-05 15:38 32.98458 -96.06373 26223 ft 447 kts 64°
2026-05-05 15:38 32.99580 -96.02889 26736 ft 451 kts 64°
2026-05-05 15:38 33.00720 -95.99348 27243 ft 455 kts 63°
2026-05-05 15:38 33.01863 -95.95801 27731 ft 459 kts 63°
2026-05-05 15:39 33.03012 -95.92214 28284 ft 461 kts 63°
2026-05-05 15:39 33.04161 -95.88633 28779 ft 464 kts 63°
2026-05-05 15:39 33.05317 -95.85021 29193 ft 466 kts 62°
2026-05-05 15:39 33.06493 -95.81365 29554 ft 470 kts 62°
2026-05-05 15:40 33.07683 -95.77670 29983 ft 475 kts 62°
2026-05-05 15:40 33.08867 -95.73983 30430 ft 478 kts 62°
2026-05-05 15:40 33.10072 -95.70231 30867 ft 482 kts 62°
2026-05-05 15:40 33.11277 -95.66475 31279 ft 486 kts 62°
2026-05-05 15:41 33.12487 -95.62692 31672 ft 490 kts 62°
2026-05-05 15:41 33.13738 -95.58778 32079 ft 494 kts 62°
2026-05-05 15:41 33.14979 -95.54891 32470 ft 498 kts 62°
2026-05-05 15:41 33.16229 -95.50965 32839 ft 503 kts 62°
2026-05-05 15:42 33.17535 -95.46856 33232 ft 507 kts 62°
2026-05-05 15:42 33.18794 -95.42893 33610 ft 510 kts 62°
2026-05-05 15:42 33.20068 -95.38882 33975 ft 514 kts 62°
2026-05-05 15:42 33.21348 -95.34842 34312 ft 518 kts 62°
2026-05-05 15:43 33.22622 -95.30809 34668 ft 521 kts 62°
2026-05-05 15:43 33.23932 -95.26662 35056 ft 524 kts 62°
2026-05-05 15:43 33.25210 -95.22619 35394 ft 526 kts 62°
2026-05-05 15:43 33.26543 -95.18395 35713 ft 529 kts 63°
2026-05-05 15:44 33.27847 -95.14252 36028 ft 532 kts 63°
2026-05-05 15:44 33.29161 -95.10068 36330 ft 535 kts 63°
2026-05-05 15:44 33.30511 -95.05766 36617 ft 537 kts 63°
2026-05-05 15:44 33.31838 -95.01530 36810 ft 540 kts 63°
2026-05-05 15:45 33.33161 -94.97300 36805 ft 538 kts 63°
2026-05-05 15:45 33.35798 -94.88844 36808 ft 542 kts 63°
2026-05-05 15:46 33.38548 -94.80047 36813 ft 560 kts 63°
2026-05-05 15:46 33.41324 -94.71119 36816 ft 572 kts 63°
2026-05-05 15:47 33.44103 -94.62124 36811 ft 574 kts 63°
2026-05-05 15:47 33.46915 -94.52989 36813 ft 574 kts 63°
2026-05-05 15:48 33.49710 -94.43908 36804 ft 574 kts 63°
2026-05-05 15:48 33.52502 -94.34817 36816 ft 574 kts 63°
2026-05-05 15:49 33.55291 -94.25693 36831 ft 574 kts 63°
2026-05-05 15:49 33.58019 -94.16601 36823 ft 575 kts 64°
2026-05-05 15:50 33.60724 -94.07489 36824 ft 575 kts 64°
2026-05-05 15:50 33.63425 -93.98368 36823 ft 575 kts 64°
2026-05-05 15:51 33.66171 -93.89082 36834 ft 574 kts 64°
2026-05-05 15:51 33.68921 -93.79763 36830 ft 574 kts 64°
2026-05-05 15:52 33.71643 -93.70509 36833 ft 574 kts 64°
2026-05-05 15:52 33.74313 -93.61400 36833 ft 574 kts 64°
2026-05-05 15:53 33.77015 -93.52149 36836 ft 574 kts 64°
2026-05-05 15:53 33.79664 -93.43047 36840 ft 573 kts 64°
2026-05-05 15:54 33.82293 -93.33998 36845 ft 572 kts 64°
2026-05-05 15:54 33.84921 -93.24917 36844 ft 572 kts 64°
2026-05-05 15:55 33.87540 -93.15831 36847 ft 570 kts 64°
2026-05-05 15:55 33.90267 -93.06848 36851 ft 565 kts 59°
2026-05-05 15:56 33.93452 -92.98242 36851 ft 562 kts 57°
2026-05-05 15:56 33.96750 -92.89603 36851 ft 562 kts 57°
2026-05-05 15:57 34.00073 -92.80816 36852 ft 561 kts 57°
2026-05-05 15:57 34.03345 -92.72095 36859 ft 561 kts 57°
2026-05-05 15:58 34.06602 -92.63371 36860 ft 559 kts 57°
2026-05-05 15:58 34.09815 -92.54747 36862 ft 559 kts 57°
2026-05-05 15:59 34.13038 -92.46071 36857 ft 558 kts 57°
2026-05-05 15:59 34.16216 -92.37495 36865 ft 558 kts 57°
2026-05-05 16:00 34.19503 -92.28604 36869 ft 558 kts 57°
2026-05-05 16:00 34.22712 -92.19901 36870 ft 558 kts 57°
2026-05-05 16:01 34.25916 -92.11183 36874 ft 558 kts 57°
2026-05-05 16:01 34.29105 -92.02480 36881 ft 557 kts 57°
2026-05-05 16:02 34.32316 -91.93700 36882 ft 557 kts 57°
2026-05-05 16:02 34.35511 -91.84940 36878 ft 557 kts 57°
2026-05-05 16:03 34.38631 -91.76360 36878 ft 557 kts 57°
2026-05-05 16:03 34.41797 -91.67629 36882 ft 557 kts 57°
2026-05-05 16:04 34.44934 -91.58963 36878 ft 559 kts 58°
2026-05-05 16:04 34.48134 -91.50089 36883 ft 559 kts 58°
2026-05-05 16:05 34.51256 -91.41407 36885 ft 559 kts 58°
2026-05-05 16:05 34.55128 -91.30607 36893 ft 559 kts 58°
2026-05-05 16:06 34.58939 -91.19944 36883 ft 559 kts 58°
2026-05-05 16:06 34.62826 -91.09028 36884 ft 559 kts 58°
2026-05-05 16:07 34.66370 -90.99047 36884 ft 560 kts 58°
2026-05-05 16:07 34.69465 -90.90304 36878 ft 560 kts 58°
2026-05-05 16:08 34.72062 -90.82947 36881 ft 560 kts 58°
2026-05-05 16:08 34.75137 -90.74218 36885 ft 560 kts 58°
2026-05-05 16:09 34.78208 -90.65472 36891 ft 560 kts 58°
2026-05-05 16:09 34.81314 -90.56605 36893 ft 561 kts 58°
2026-05-05 16:10 34.84409 -90.47743 36896 ft 561 kts 58°
2026-05-05 16:10 34.87445 -90.39025 36905 ft 561 kts 58°
2026-05-05 16:11 34.90488 -90.30261 36893 ft 561 kts 58°
2026-05-05 16:12 34.96597 -90.12592 36902 ft 561 kts 58°
2026-05-05 16:12 34.99198 -90.03500 36920 ft 573 kts 69°
2026-05-05 16:13 35.00218 -89.88501 36936 ft 590 kts 91°
2026-05-05 16:13 34.98962 -89.78496 36964 ft 593 kts 98°
2026-05-05 16:14 34.95898 -89.58428 36976 ft 593 kts 97°
2026-05-05 16:15 34.93004 -89.38274 36966 ft 592 kts 97°
2026-05-05 16:16 34.90116 -89.18305 36955 ft 592 kts 97°
2026-05-05 16:17 34.87936 -89.03410 36954 ft 592 kts 97°
2026-05-05 16:18 34.85362 -88.86003 36966 ft 593 kts 97°
2026-05-05 16:19 34.82645 -88.67795 36972 ft 593 kts 97°
2026-05-05 16:19 34.80119 -88.51064 36977 ft 593 kts 97°
2026-05-05 16:20 34.77097 -88.31231 36998 ft 593 kts 97°
2026-05-05 16:22 34.73273 -88.06432 37027 ft 594 kts 98°
2026-05-05 16:23 34.70170 -87.86611 37029 ft 593 kts 97°
2026-05-05 16:23 34.67832 -87.71769 37024 ft 593 kts 97°
2026-05-05 16:24 34.66272 -87.61958 36884 ft 585 kts 97°
2026-05-05 16:24 34.64732 -87.52351 36489 ft 566 kts 97°
2026-05-05 16:25 34.63982 -87.47689 36224 ft 558 kts 97°
2026-05-05 16:25 34.62449 -87.38424 35043 ft 559 kts 99°
2026-05-05 16:25 34.61599 -87.33773 34360 ft 561 kts 99°
2026-05-05 16:26 34.59834 -87.24373 33182 ft 561 kts 99°
2026-05-05 16:26 34.58118 -87.15139 33045 ft 559 kts 99°
2026-05-05 16:27 34.56416 -87.05812 33047 ft 559 kts 98°
2026-05-05 16:27 34.54813 -86.96392 33040 ft 559 kts 99°
2026-05-05 16:28 34.52742 -86.87167 33035 ft 561 kts 105°
2026-05-05 16:28 34.50349 -86.78156 33040 ft 562 kts 105°
2026-05-05 16:29 34.47917 -86.68934 33033 ft 561 kts 105°
2026-05-05 16:29 34.45538 -86.59827 33039 ft 562 kts 105°
2026-05-05 16:30 34.43160 -86.50757 33036 ft 562 kts 105°
2026-05-05 16:30 34.40770 -86.41688 33041 ft 563 kts 104°
2026-05-05 16:31 34.38377 -86.32616 33036 ft 564 kts 104°
2026-05-05 16:31 34.35968 -86.23526 33030 ft 563 kts 104°
2026-05-05 16:32 34.33555 -86.14454 33034 ft 564 kts 104°
2026-05-05 16:32 34.31186 -86.05344 33032 ft 564 kts 104°
2026-05-05 16:33 34.28855 -85.96331 32672 ft 550 kts 104°
2026-05-05 16:33 34.27722 -85.91959 32126 ft 549 kts 104°
2026-05-05 16:33 34.26573 -85.87520 31497 ft 548 kts 104°
2026-05-05 16:34 34.25429 -85.83119 30947 ft 546 kts 105°
2026-05-05 16:34 34.24281 -85.78719 30501 ft 541 kts 105°
2026-05-05 16:34 34.23143 -85.74378 30032 ft 537 kts 105°
2026-05-05 16:34 34.22017 -85.70084 29527 ft 534 kts 105°
2026-05-05 16:35 34.20889 -85.65800 28972 ft 531 kts 105°
2026-05-05 16:35 34.19767 -85.61544 28334 ft 530 kts 106°
2026-05-05 16:35 34.18643 -85.57281 27697 ft 528 kts 106°
2026-05-05 16:35 34.17528 -85.53052 27288 ft 521 kts 106°
2026-05-05 16:36 34.16421 -85.48875 26889 ft 514 kts 107°
2026-05-05 16:36 34.15326 -85.44744 26408 ft 508 kts 107°
2026-05-05 16:36 34.14253 -85.40704 25935 ft 504 kts 107°
2026-05-05 16:36 34.13191 -85.36664 25475 ft 498 kts 107°
2026-05-05 16:37 34.12160 -85.32680 25024 ft 492 kts 107°
2026-05-05 16:37 34.11144 -85.28734 24554 ft 487 kts 107°
2026-05-05 16:37 34.10137 -85.24839 24081 ft 482 kts 107°
2026-05-05 16:37 34.09135 -85.20976 23368 ft 477 kts 107°
2026-05-05 16:38 34.08149 -85.17188 22555 ft 465 kts 107°
2026-05-05 16:38 34.07181 -85.13477 21823 ft 458 kts 107°
2026-05-05 16:38 34.06228 -85.09828 21102 ft 451 kts 108°
2026-05-05 16:38 34.05027 -85.06351 20346 ft 443 kts 120°
2026-05-05 16:39 34.03250 -85.03284 19616 ft 433 kts 134°
2026-05-05 16:39 34.01107 -85.00813 18878 ft 418 kts 142°
2026-05-05 16:39 33.98865 -84.98568 18143 ft 406 kts 143°
2026-05-05 16:39 33.96733 -84.96458 17410 ft 396 kts 142°
2026-05-05 16:40 33.94565 -84.94265 16656 ft 387 kts 142°
2026-05-05 16:40 33.92549 -84.92189 15932 ft 379 kts 142°
2026-05-05 16:40 33.90529 -84.90097 15181 ft 370 kts 141°
2026-05-05 16:40 33.88584 -84.88081 14469 ft 363 kts 142°
2026-05-05 16:41 33.86694 -84.86125 13954 ft 349 kts 142°
2026-05-05 16:41 33.84880 -84.84246 13519 ft 334 kts 142°
2026-05-05 16:41 33.83152 -84.82459 13190 ft 316 kts 142°
2026-05-05 16:41 33.81493 -84.80746 12684 ft 308 kts 142°
2026-05-05 16:42 33.79883 -84.79085 12164 ft 303 kts 142°
2026-05-05 16:42 33.78276 -84.77432 12118 ft 304 kts 142°
2026-05-05 16:42 33.76664 -84.75772 12175 ft 304 kts 142°
2026-05-05 16:42 33.75094 -84.74059 12148 ft 306 kts 134°
2026-05-05 16:43 33.73911 -84.71960 12149 ft 309 kts 117°
2026-05-05 16:43 33.73255 -84.69435 12137 ft 313 kts 99°
2026-05-05 16:43 33.73148 -84.66841 12153 ft 313 kts 91°
2026-05-05 16:43 33.73197 -84.64251 11942 ft 308 kts 90°
2026-05-05 16:44 33.73253 -84.61651 11450 ft 309 kts 90°
2026-05-05 16:44 33.73286 -84.59064 11084 ft 307 kts 91°
2026-05-05 16:44 33.73301 -84.56445 10716 ft 305 kts 92°
2026-05-05 16:44 33.73304 -84.53941 10368 ft 303 kts 92°
2026-05-05 16:45 33.73305 -84.51398 10011 ft 301 kts 92°
2026-05-05 16:45 33.73304 -84.48879 9649 ft 299 kts 92°
2026-05-05 16:45 33.73303 -84.46385 9299 ft 297 kts 92°
2026-05-05 16:45 33.73302 -84.43901 8937 ft 295 kts 93°
2026-05-05 16:46 33.73301 -84.41389 8571 ft 293 kts 93°
2026-05-05 16:46 33.73301 -84.38956 8160 ft 286 kts 93°
2026-05-05 16:46 33.73302 -84.36568 7842 ft 283 kts 93°
2026-05-05 16:46 33.73300 -84.34190 7496 ft 282 kts 93°
2026-05-05 16:47 33.73299 -84.31804 7065 ft 278 kts 93°
2026-05-05 16:47 33.73299 -84.30221 7005 ft 265 kts 93°
2026-05-05 16:47 33.73304 -84.28069 6999 ft 251 kts 93°
2026-05-05 16:47 33.73307 -84.25994 6989 ft 250 kts 93°
2026-05-05 16:48 33.73308 -84.23848 6790 ft 247 kts 93°
2026-05-05 16:48 33.73308 -84.21772 6423 ft 249 kts 93°
2026-05-05 16:48 33.73309 -84.19695 6078 ft 248 kts 93°
2026-05-05 16:48 33.73310 -84.17612 5813 ft 246 kts 94°
2026-05-05 16:49 33.73310 -84.15556 5504 ft 245 kts 93°
2026-05-05 16:49 33.73310 -84.13518 5175 ft 243 kts 93°
2026-05-05 16:49 33.73315 -84.11463 4962 ft 233 kts 94°
2026-05-05 16:49 33.73318 -84.09542 4996 ft 231 kts 94°
2026-05-05 16:50 33.73319 -84.07578 4993 ft 230 kts 94°
2026-05-05 16:50 33.73313 -84.05633 5013 ft 230 kts 97°
2026-05-05 16:50 33.72877 -84.03824 4989 ft 223 kts 129°
2026-05-05 16:50 33.71831 -84.02469 5001 ft 220 kts 141°
2026-05-05 16:51 33.70694 -84.01301 4984 ft 207 kts 144°
2026-05-05 16:51 33.69508 -84.00451 4943 ft 194 kts 163°
2026-05-05 16:51 33.68201 -84.00010 4994 ft 194 kts 168°
2026-05-05 16:51 33.66864 -83.99852 5041 ft 192 kts 192°
2026-05-05 16:52 33.65721 -84.00680 4997 ft 194 kts 230°
2026-05-05 16:52 33.65133 -84.02164 5009 ft 198 kts 251°
2026-05-05 16:52 33.64916 -84.03833 5030 ft 201 kts 263°
2026-05-05 16:52 33.64912 -84.05539 5015 ft 198 kts 267°
2026-05-05 16:53 33.64959 -84.07173 4991 ft 191 kts 268°
2026-05-05 16:53 33.64997 -84.08777 4990 ft 191 kts 267°
2026-05-05 16:53 33.65019 -84.10373 5000 ft 190 kts 266°
2026-05-05 16:53 33.65028 -84.11970 5013 ft 190 kts 265°
2026-05-05 16:54 33.65027 -84.13576 4981 ft 190 kts 265°
2026-05-05 16:54 33.65020 -84.15175 5013 ft 191 kts 265°
2026-05-05 16:54 33.65013 -84.16761 4873 ft 183 kts 265°
2026-05-05 16:54 33.65006 -84.18279 4696 ft 179 kts 265°
2026-05-05 16:55 33.64998 -84.19810 4408 ft 178 kts 265°
2026-05-05 16:55 33.64990 -84.21331 4178 ft 178 kts 265°
2026-05-05 16:55 33.64984 -84.22837 3909 ft 177 kts 265°
2026-05-05 16:55 33.64977 -84.24895 3605 ft 177 kts 266°
2026-05-05 16:56 33.64974 -84.26447 3267 ft 176 kts 265°
2026-05-05 16:56 33.64971 -84.27919 3121 ft 168 kts 265°
2026-05-05 16:56 33.64967 -84.29306 2901 ft 166 kts 265°
2026-05-05 16:56 33.64964 -84.30745 2679 ft 165 kts 265°
2026-05-05 16:57 33.64963 -84.32109 2452 ft 164 kts 265°
2026-05-05 16:57 33.64961 -84.33478 2232 ft 164 kts 266°
2026-05-05 16:57 33.64959 -84.34841 2035 ft 159 kts 266°
2026-05-05 16:57 33.64960 -84.36159 1833 ft 154 kts 266°
2026-05-05 16:58 33.64959 -84.37437 1603 ft 151 kts 266°
2026-05-05 16:58 33.64957 -84.38718 1402 ft 151 kts 266°
2026-05-05 16:58 33.64957 -84.39976 1212 ft 149 kts 266°
2026-05-05 16:58 33.64954 -84.41293 1044 ft 137 kts 270°
2026-05-05 16:59 33.64953 -84.42201 1045 ft 66 kts 270°
2026-05-05 16:59 33.64952 -84.42530 1044 ft 10 kts 269°
2026-05-05 16:59 33.64917 -84.42706 1044 ft 25 kts 243°
2026-05-05 16:59 33.64849 -84.42844 1044 ft 19 kts 239°
2026-05-05 17:00 33.64797 -84.42995 1044 ft 20 kts 268°
2026-05-05 17:00 33.64731 -84.43137 1045 ft 22 kts 192°
2026-05-05 17:00 33.64630 -84.43214 1045 ft 12 kts 230°
2026-05-05 17:00 33.64564 -84.43253 1045 ft 0 kts 168°
2026-05-05 17:01 33.64561 -84.43252 1045 ft 2 kts 165°